Temperature
19 19 19 19 19 18 18 18 18 17 17 17 17 16 16 16 15 15 15 15 15 15 15 14 14 14 14 14 14 14 15 15 15 15 15 15 15 15 15 15 15 15 15
19 19 19 19 19 18 18 18 18 17 17 17 16 16 16 16 15 15 15 15 15 15 15 15 14 14 14 14 14 14 14 14 14 15 15 15 15 15 15 15 15 15 15
19 19 19 19 19 18 18 18 18 17 17 17 16 16 16 16 15 15 15 15 15 15 15 15 15 14 14 14 14 14 14 14 14 14 14 14 14 14 15 15 15 15 15
18 18 18 19 18 18 18 18 17 17 17 16 16 16 16 16 15 15 15 15 15 15 15 14 14 14 14 14 14 14 14 14 14 14 14 14 14 14 14 14 15 15 15
18 18 18 18 18 18 18 17 17 17 17 16 16 16 16 15 15 15 15 15 15 15 14 14 14 14 14 14 14 14 14 14 14 14 14 14 14 14 13 14 14 15 15
18 18 18 18 18 18 17 17 17 17 16 16 16 16 15 15 15 15 15 15 15 15 14 14 14 14 14 14 14 14 14 14 14 14 14 14 14 13 13 13 14 14 15
18 18 18 18 18 17 17 17 17 17 16 16 16 16 15 15 15 15 15 15 15 14 14 14 14 14 14 14 14 14 14 14 14 14 14 14 13 13 13 13 13 14 14
17 18 18 18 17 17 17 17 16 16 16 16 16 15 15 15 15 15 14 14 14 14 14 14 14 14 14 14 14 13 13 13 13 13 13 13 13 13 13 13 13 13 14
17 17 17 17 17 17 17 16 16 16 16 15 15 15 15 15 15 14 14 14 14 14 14 14 14 14 14 13 13 13 13 13 13 13 13 13 13 13 13 13 13 13 13
17 17 17 17 17 17 16 16 16 16 15 15 15 15 15 14 14 14 14 14 14 14 14 14 14 13 13 13 13 13 13 13 13 13 13 13 13 13 13 13 13 13 13
17 17 17 17 16 16 16 16 15 15 15 15 15 14 14 14 14 14 14 14 14 13 13 13 13 13 13 13 13 13 13 13 12 12 12 12 12 12 13 13 13 13 13
17 17 17 16 16 16 16 16 15 15 15 15 14 14 14 14 14 14 14 13 13 13 13 13 13 12 12 12 12 12 12 12 12 12 12 12 12 12 12 12 12 12 12
17 17 17 16 16 16 16 15 15 15 15 14 14 14 14 14 14 14 13 13 13 13 13 12 12 12 12 12 12 12 12 11 11 11 11 11 11 12 12 12 12 12 12
17 17 17 16 16 16 16 15 15 15 15 14 14 14 14 14 14 13 13 13 13 13 12 12 12 12 12 12 11 11 11 11 11 11 11 11 11 11 11 11 11 11 12
17 17 17 16 16 16 16 15 15 15 15 14 14 14 14 14 13 13 13 13 13 12 12 12 12 12 12 11 11 11 11 11 11 11 11 11 10 10 11 11 11 11 11
17 17 17 16 16 16 16 15 15 15 14 14 14 14 14 13 13 13 13 12 12 12 12 12 12 12 11 11 11 11 11 11 11 10 10 10 10 10 10 10 10 10 10
18 17 17 17 16 16 16 15 15 15 14 14 14 14 13 13 13 12 12 12 12 12 12 12 12 11 11 11 11 11 10 10 10 10 10 10 10 10 10 10 10 10 10
18 18 17 17 16 16 16 15 15 14 14 14 14 13 13 13 13 12 12 12 12 12 11 11 11 11 11 11 11 10 10 10 10 10 10 10 10 10 9 10 10 10 10
19 18 17 17 16 16 15 15 15 14 14 14 13 13 13 13 12 12 12 12 11 11 11 11 11 11 11 10 10 10 10 10 10 10 9 9 9 9 9 9 9 9 10
18 18 17 16 16 16 15 15 14 14 14 14 13 13 13 12 12 12 12 11 11 11 11 11 11 10 10 10 10 10 9 9 9 9 9 9 9 9 9 9 9 9 9
18 17 17 16 16 16 15 15 14 14 14 13 13 13 12 12 12 12 11 11 11 11 11 10 10 10 10 10 9 9 9 9 9 9 9 9 8 8 8 8 8 8 8
17 17 16 16 16 15 15 15 14 14 13 13 13 12 12 12 12 11 11 11 11 11 10 10 10 10 9 9 9 9 8 8 8 8 8 8 8 8 8 8 8 8 8
17 17 16 16 15 15 15 14 14 13 13 13 12 12 12 11 11 11 11 11 10 10 10 10 9 9 9 9 9 8 8 8 8 8 7 7 7 7 7 8 8 7 7
17 17 16 16 15 15 14 14 13 13 13 12 12 12 11 11 11 11 10 10 10 10 9 9 9 9 9 8 8 8 8 8 7 7 7 7 7 7 7 7 7 7 7
17 16 16 16 15 15 14 14 13 13 12 12 12 11 11 11 10 10 10 10 10 9 9 9 8 8 8 8 8 7 7 7 7 7 7 7 7 7 6 6 6 6 6
16 16 16 15 15 14 14 13 13 12 12 12 11 11 11 10 10 10 10 9 9 9 9 8 8 8 8 8 7 7 7 7 6 6 6 6 6 6 6 6 6 6 6
Wind_Speed
0 1 2 3 4 4 4 3 3 3 3 2 2 2 2 2 3 3 5 6 6 5 4 2 3 3 3 3 3 2 4 4 3 3 4 4 4 5 4 4 4 5 5
2 3 3 4 4 3 3 3 3 2 2 2 2 1 1 1 1 3 5 7 7 6 4 3 3 3 3 4 4 3 2 3 4 3 3 4 5 4 5 4 4 4 4
3 3 3 3 3 3 3 3 3 3 3 3 3 3 3 3 4 4 4 5 7 7 6 5 3 3 3 3 3 3 3 2 3 3 2 2 1 3 4 4 4 5 4
2 2 3 3 2 2 3 3 4 4 3 3 4 4 3 2 2 2 3 4 7 7 7 6 5 4 3 3 3 2 1 1 2 2 2 1 2 0 3 4 4 4 4
3 3 3 3 3 3 4 4 5 5 4 4 4 5 3 1 1 2 4 5 5 7 7 6 5 4 4 4 4 3 2 1 1 1 1 1 2 1 1 3 5 4 3
3 3 3 4 4 4 4 4 5 5 4 4 4 4 4 3 3 3 4 4 4 4 6 7 5 4 3 4 4 3 3 2 1 1 0 0 0 0 1 1 3 3 4
4 4 5 4 4 4 4 4 5 4 3 4 4 3 3 3 3 2 2 3 3 3 5 5 4 4 4 4 4 4 4 3 2 1 1 1 1 1 2 1 1 2 3
4 5 5 4 4 4 4 4 4 3 3 3 3 3 3 2 2 2 1 1 1 2 3 4 4 4 5 5 4 3 3 3 3 4 2 1 2 1 1 2 1 1 2
5 5 5 4 4 4 4 4 4 3 3 3 3 3 3 2 2 2 2 2 2 2 3 4 4 4 4 4 3 3 4 4 3 3 3 2 2 2 1 1 2 2 1
5 5 4 4 4 4 3 3 4 3 2 2 2 2 2 2 2 2 3 2 2 3 3 4 4 4 4 4 4 3 4 4 4 3 4 4 3 3 2 1 1 2 2
7 6 4 4 4 3 4 3 3 3 2 2 2 2 2 2 3 2 2 2 2 3 3 3 3 4 4 4 4 4 4 4 5 5 4 5 4 3 3 2 1 1 2
6 5 5 4 4 4 3 3 3 3 2 2 2 2 2 2 2 1 1 2 2 2 2 3 3 3 4 4 3 4 4 4 4 5 5 5 5 4 3 3 2 2 2
6 5 5 5 5 4 4 3 3 3 2 3 3 2 1 2 1 0 1 1 2 2 3 3 3 3 3 3 3 2 3 3 3 4 4 5 5 5 4 4 3 3 3
8 7 6 5 5 4 4 3 3 3 3 3 3 2 1 1 1 0 1 1 1 1 2 2 2 3 3 3 3 3 3 3 4 4 4 4 4 4 5 4 4 3 3
8 8 7 6 5 4 4 3 3 2 3 3 3 2 1 0 0 1 1 1 1 1 1 2 3 3 3 3 3 3 3 3 4 5 5 5 6 7 5 4 3 3 3
10 9 8 7 7 6 5 4 3 2 3 3 2 1 1 1 0 0 1 1 2 2 2 2 3 4 4 7 7 4 3 3 4 5 6 6 6 8 9 9 7 5 4
11 11 10 9 8 7 6 5 4 3 3 3 1 1 1 1 0 0 0 1 2 1 2 3 3 4 6 8 9 8 4 3 4 5 5 6 7 8 5 8 9 8 9
11 11 9 8 7 6 5 5 4 4 3 2 1 1 1 1 0 0 0 1 1 1 2 3 3 4 6 9 9 9 4 3 4 5 5 6 7 7 7 6 7 7 7
10 9 9 8 7 7 6 6 4 4 3 2 2 1 2 2 1 1 2 2 1 2 2 3 3 4 7 9 9 8 3 3 5 5 5 6 6 11 11 7 7 8 8
8 8 8 7 8 7 7 7 5 4 4 3 3 2 2 2 2 2 2 1 1 2 2 3 3 4 6 9 9 8 2 4 5 5 6 9 10 13 13 7 6 9 9
8 9 9 9 8 8 8 7 6 5 5 3 2 2 2 2 2 1 1 1 1 1 2 3 4 4 6 8 10 9 3 4 5 5 5 6 13 15 15 12 7 11 11
9 9 10 8 7 8 9 8 7 5 3 3 2 1 1 1 1 1 1 1 1 1 3 3 5 4 5 6 8 10 9 8 5 6 6 7 14 15 16 12 12 15 13
10 9 9 8 6 7 8 9 7 5 4 3 2 2 1 1 1 1 1 1 1 1 3 3 4 5 5 6 10 11 11 11 6 6 11 13 15 14 11 13 15 12 7
9 9 9 9 8 7 7 7 6 6 5 4 3 2 2 2 1 1 2 2 2 2 3 4 5 5 5 5 5 5 6 8 8 7 10 13 13 9 9 11 9 6 6
8 9 10 10 10 8 7 6 6 7 6 4 3 2 2 2 2 2 3 3 4 5 5 5 5 5 6 8 10 8 6 5 6 7 5 5 6 6 6 6 7 6 6
8 9 9 9 8 8 7 6 6 7 6 4 4 3 2 2 2 2 3 5 6 9 10 9 8 7 10 12 13 13 12 12 12 8 5 6 7 7 7 8 8 7 7
Wind_Direction
328 77 89 100 99 90 99 103 102 95 94 79 73 58 23 354 356 4 9 12 14 19 25 19 9 13 20 8 7 14 21 13 0 24 10 1 12 26 22 10 12 12 12
81 75 81 88 98 101 99 97 107 102 89 93 103 107 94 15 341 353 15 19 17 16 20 24 11 7 12 14 17 27 24 13 19 46 44 6 353 357 6 7 16 8 10
153 136 109 104 96 100 117 115 110 92 80 87 85 65 44 26 17 9 3 3 14 20 23 19 14 9 21 8 3 20 50 23 9 38 88 82 333 325 337 356 6 5 9
151 147 136 124 121 126 105 98 94 85 76 83 92 91 82 51 353 340 346 358 18 22 23 23 23 19 16 8 356 27 40 67 13 8 35 112 171 101 336 334 343 354 3
162 160 156 144 125 112 106 99 91 80 73 78 94 97 88 75 10 11 20 16 11 18 20 24 24 20 17 10 8 15 31 53 53 11 11 42 47 94 159 313 327 339 341
138 131 121 114 101 93 96 98 94 77 69 78 81 102 105 89 61 39 29 15 6 7 15 21 22 17 15 14 12 14 23 24 37 31 70 135 143 234 175 251 307 319 318
141 135 129 125 119 111 109 106 103 83 69 77 75 87 101 98 90 72 45 28 13 5 357 10 10 10 8 16 21 25 20 14 15 0 325 261 236 216 186 199 275 315 315
155 153 151 148 144 135 127 122 114 101 86 83 76 71 83 91 90 90 78 53 14 338 340 359 8 11 16 23 25 23 9 14 13 10 3 343 309 266 217 200 203 319 329
167 162 153 152 154 149 150 146 136 118 104 97 88 74 77 86 91 79 65 48 16 2 4 10 10 10 17 22 25 24 10 8 3 357 0 358 335 330 285 232 205 192 291
171 165 161 166 165 159 147 137 136 136 127 111 101 94 81 90 96 81 56 34 13 11 16 18 16 14 13 16 26 17 5 17 4 357 3 355 338 339 333 298 245 216 210
180 177 173 168 154 138 137 138 139 128 120 117 104 88 75 91 96 80 46 25 14 13 16 11 18 17 13 10 19 11 12 12 2 0 360 346 334 340 336 327 298 254 216
175 170 164 153 147 147 148 152 156 152 157 149 126 110 90 96 91 65 22 21 14 5 7 12 19 12 9 6 11 360 3 1 351 343 347 339 340 337 329 325 310 284 248
164 159 159 163 167 167 164 166 171 172 166 149 136 120 109 105 119 16 355 11 17 12 9 14 6 355 351 352 350 349 345 340 331 328 330 325 333 327 320 315 309 297 294
172 169 173 177 177 172 169 169 178 173 160 147 142 150 177 181 200 281 344 350 357 1 351 350 342 335 332 330 335 340 335 328 323 318 315 314 311 301 307 314 310 306 303
179 180 181 181 177 172 171 168 170 163 148 142 148 180 189 142 85 14 337 340 337 329 328 343 341 334 324 325 328 320 316 314 318 318 311 305 309 313 312 313 308 308 296
189 185 181 179 182 181 177 167 165 166 152 154 172 173 129 109 101 322 341 343 328 327 342 332 326 327 326 330 332 321 303 302 304 307 309 308 309 315 319 314 308 300 291
188 186 185 185 185 183 175 171 173 154 142 146 144 134 140 144 231 293 23 314 299 315 322 316 318 311 309 324 330 325 313 292 290 292 298 307 314 318 309 309 313 304 295
187 187 184 182 180 173 168 159 146 143 138 132 131 136 142 162 185 113 282 285 285 283 291 300 304 306 314 329 331 330 330 295 289 285 281 284 293 298 300 300 301 293 290
186 182 179 173 167 168 164 146 142 142 138 151 169 181 172 169 162 224 267 270 264 279 280 286 297 302 310 324 328 330 319 307 300 294 290 287 284 296 304 300 297 298 294
170 166 159 153 161 169 155 147 153 153 173 192 195 188 171 165 188 228 249 250 245 259 280 293 292 289 296 315 325 327 310 305 304 303 298 300 300 303 306 293 285 289 290
164 159 157 165 174 165 154 157 162 185 200 188 174 173 181 182 200 211 237 265 269 291 299 300 302 296 296 312 322 323 315 290 297 301 301 299 307 306 304 297 277 278 286
160 160 162 170 168 163 160 166 188 200 177 159 160 185 209 219 199 177 265 301 287 296 300 306 309 303 302 309 316 320 316 309 295 294 293 294 305 307 306 300 288 289 292
166 165 164 164 166 172 171 179 196 178 163 160 179 211 219 227 211 196 226 281 280 275 289 291 295 299 302 307 315 318 317 313 305 289 296 303 306 308 307 301 299 298 287
169 165 161 166 179 185 187 189 182 172 164 175 196 209 212 236 246 233 217 223 248 260 272 276 280 288 294 294 297 299 305 308 308 303 303 307 307 301 295 301 303 291 273
171 169 174 180 187 186 190 187 174 166 169 183 200 213 220 230 245 251 240 237 241 237 247 253 256 268 283 283 290 296 294 293 291 304 305 307 309 306 301 299 296 289 282
172 174 180 184 186 184 190 188 180 172 172 187 206 215 221 232 237 257 289 270 259 275 270 267 266 266 268 285 294 297 299 301 304 310 300 297 295 293 292 294 295 289 280
Height
1543 1544 1546 1547 1548 1549 1550 1551 1551 1551 1551 1551 1551 1551 1550 1549 1549 1548 1547 1546 1545 1544 1543 1541 1540 1539 1537 1535 1534 1533 1532 1531 1530 1529 1529 1528 1528 1528 1527 1527 1528 1528 1528
1543 1544 1546 1547 1548 1549 1550 1551 1551 1551 1551 1551 1551 1551 1550 1550 1549 1548 1548 1547 1546 1545 1543 1542 1541 1540 1538 1537 1535 1534 1533 1532 1531 1530 1529 1529 1530 1529 1528 1528 1528 1528 1528
1543 1544 1546 1547 1548 1549 1550 1551 1551 1552 1552 1551 1551 1551 1550 1550 1549 1549 1548 1547 1546 1545 1544 1543 1542 1541 1539 1538 1536 1535 1534 1533 1533 1532 1532 1531 1530 1529 1529 1529 1528 1528 1528
1543 1544 1545 1547 1548 1550 1551 1551 1551 1552 1551 1551 1551 1551 1550 1549 1549 1549 1548 1548 1547 1546 1545 1544 1543 1541 1540 1539 1538 1536 1535 1534 1534 1533 1532 1532 1531 1531 1530 1530 1529 1528 1528
1542 1544 1545 1547 1548 1550 1550 1551 1551 1551 1551 1551 1551 1550 1550 1549 1549 1549 1548 1548 1547 1546 1545 1544 1543 1542 1541 1540 1538 1537 1536 1535 1534 1533 1532 1532 1531 1531 1530 1529 1528 1528 1528
1542 1543 1545 1547 1548 1549 1550 1551 1551 1551 1551 1550 1550 1550 1549 1549 1549 1548 1548 1548 1547 1546 1546 1545 1544 1542 1541 1540 1539 1538 1537 1535 1534 1534 1533 1532 1531 1531 1530 1529 1528 1527 1527
1541 1542 1544 1546 1547 1549 1549 1550 1550 1550 1550 1550 1550 1549 1549 1549 1548 1548 1548 1547 1547 1546 1545 1545 1544 1543 1541 1540 1539 1538 1537 1536 1535 1534 1533 1532 1531 1531 1530 1529 1528 1527 1526
1540 1542 1543 1545 1547 1548 1549 1549 1550 1550 1550 1549 1549 1549 1549 1548 1548 1548 1548 1547 1547 1546 1545 1545 1544 1542 1541 1540 1539 1538 1537 1535 1534 1533 1532 1531 1531 1530 1529 1528 1528 1526 1525
1539 1541 1543 1544 1546 1547 1548 1549 1549 1549 1549 1549 1549 1548 1548 1548 1548 1548 1547 1547 1546 1546 1545 1544 1543 1542 1541 1540 1539 1537 1536 1535 1534 1533 1532 1531 1530 1529 1528 1527 1527 1527 1524
1538 1540 1542 1544 1545 1546 1547 1548 1549 1549 1549 1548 1548 1548 1548 1548 1548 1547 1547 1546 1546 1545 1545 1544 1542 1541 1540 1539 1538 1536 1535 1534 1533 1532 1531 1529 1529 1528 1527 1526 1525 1525 1524
1535 1538 1540 1542 1544 1545 1546 1547 1548 1548 1548 1548 1547 1547 1547 1547 1547 1547 1546 1546 1545 1545 1544 1543 1542 1540 1539 1538 1537 1536 1534 1533 1532 1530 1529 1528 1527 1526 1525 1524 1523 1523 1522
1534 1536 1539 1541 1542 1543 1545 1546 1546 1547 1547 1547 1547 1546 1546 1546 1546 1546 1546 1546 1545 1544 1543 1542 1541 1540 1539 1537 1536 1534 1533 1532 1530 1529 1528 1526 1525 1524 1523 1522 1521 1520 1519
1532 1535 1537 1539 1540 1542 1543 1544 1545 1546 1546 1546 1546 1545 1545 1545 1545 1545 1545 1545 1544 1543 1542 1541 1540 1539 1538 1536 1535 1533 1532 1530 1529 1527 1526 1525 1523 1522 1521 1519 1519 1518 1517
1529 1532 1534 1537 1538 1540 1541 1542 1543 1544 1544 1544 1544 1544 1544 1544 1544 1545 1544 1544 1543 1542 1541 1540 1539 1538 1536 1535 1533 1532 1530 1529 1527 1526 1524 1523 1521 1520 1518 1517 1516 1515 1513
1527 1529 1532 1534 1536 1538 1539 1541 1542 1542 1543 1543 1543 1543 1543 1543 1543 1543 1543 1542 1542 1541 1540 1539 1538 1536 1535 1533 1532 1530 1528 1526 1525 1523 1522 1520 1519 1517 1516 1514 1513 1511 1510
1523 1526 1529 1531 1533 1535 1537 1539 1540 1541 1541 1541 1541 1541 1541 1542 1542 1541 1541 1541 1540 1539 1538 1537 1536 1534 1533 1531 1529 1528 1526 1524 1522 1520 1519 1517 1516 1514 1512 1511 1510 1508 1507
1519 1522 1525 1528 1531 1533 1535 1536 1538 1539 1539 1539 1540 1540 1540 1540 1540 1539 1539 1539 1538 1537 1536 1535 1533 1532 1530 1529 1527 1525 1523 1521 1519 1517 1515 1514 1512 1510 1508 1507 1505 1504 1502
1516 1519 1523 1526 1528 1531 1533 1535 1536 1536 1537 1537 1538 1538 1538 1538 1538 1537 1537 1536 1535 1534 1533 1532 1531 1529 1528 1526 1524 1522 1520 1518 1516 1514 1512 1510 1508 1506 1504 1501 1500 1498 1497
1513 1517 1520 1523 1526 1528 1531 1532 1533 1534 1535 1535 1535 1536 1536 1536 1535 1535 1534 1534 1533 1532 1530 1529 1528 1526 1525 1523 1520 1518 1516 1514 1512 1510 1508 1506 1504 1502 1499 1497 1494 1492 1491
1511 1515 1518 1521 1524 1526 1528 1530 1531 1531 1532 1533 1533 1533 1533 1533 1532 1532 1531 1531 1530 1529 1527 1526 1525 1523 1521 1519 1517 1515 1512 1510 1508 1506 1504 1502 1499 1497 1495 1492 1489 1487 1484
1509 1512 1515 1518 1521 1523 1525 1526 1528 1528 1529 1530 1531 1531 1530 1530 1530 1529 1529 1528 1527 1525 1524 1523 1521 1519 1517 1515 1513 1511 1509 1506 1503 1501 1499 1496 1494 1491 1489 1487 1484 1482 1479
1506 1509 1512 1515 1518 1520 1522 1523 1524 1526 1527 1527 1528 1528 1528 1527 1527 1526 1525 1525 1523 1522 1520 1519 1517 1515 1514 1512 1509 1507 1505 1502 1499 1496 1493 1491 1488 1486 1483 1481 1478 1476 1473
1503 1506 1509 1512 1515 1517 1519 1520 1522 1523 1523 1524 1524 1524 1524 1524 1524 1523 1522 1521 1520 1518 1516 1514 1512 1511 1509 1507 1505 1503 1500 1497 1494 1491 1488 1485 1482 1479 1477 1474 1471 1469 1467
1500 1503 1506 1509 1511 1513 1515 1517 1519 1520 1520 1520 1521 1521 1521 1520 1520 1519 1518 1517 1515 1514 1512 1510 1508 1506 1504 1502 1500 1497 1495 1492 1489 1485 1482 1479 1476 1473 1470 1467 1465 1462 1460
1497 1500 1503 1505 1508 1510 1512 1513 1515 1516 1517 1517 1517 1517 1517 1517 1516 1515 1514 1513 1512 1510 1508 1506 1504 1501 1499 1497 1495 1492 1489 1486 1483 1479 1476 1472 1469 1466 1463 1461 1458 1455 1453
1494 1497 1499 1502 1504 1506 1508 1510 1511 1512 1513 1513 1513 1513 1513 1513 1512 1511 1510 1509 1508 1506 1504 1502 1500 1497 1495 1492 1489 1487 1484 1480 1477 1474 1470 1466 1463 1460 1457 1454 1451 1448 1446